| time (UTC) | temp F | wind direction | speed knots | gust knots | rain 1hr in | rain 24hr in | rain mn in | humidity % | barometer mb |
| 20260506091923 | 76 | 138 | 1.7 | 4.3 | 0.00 | 0.00 | 0.00 | 82 | 1008.8 |
| 20260506091422 | 76 | 142 | 1.7 | 3.5 | 0.00 | 0.00 | 0.00 | 82 | 1008.8 |
| 20260506090921 | 76 | 140 | 1.7 | 6.1 | 0.00 | 0.00 | 0.00 | 82 | 1008.7 |
| 20260506090421 | 76 | 120 | 3.5 | 6.1 | 0.00 | 0.00 | 0.00 | 82 | 1008.5 |
| 20260506085923 | 76 | 152 | 2.6 | 3.5 | 0.00 | 0.00 | 0.00 | 82 | 1008.5 |
| 20260506085425 | 76 | 158 | 1.7 | 4.3 | 0.00 | 0.00 | 0.00 | 83 | 1008.6 |
| 20260506085421 | 76 | 159 | 1.7 | 3.5 | 0.00 | 0.00 | 0.00 | 83 | 1008.7 |
| 20260506084422 | 76 | 141 | 2.6 | 4.3 | 0.00 | 0.00 | 0.00 | 83 | 1008.7 |
| 20260506083921 | 76 | 137 | 2.6 | 5.2 | 0.00 | 0.00 | 0.00 | 83 | 1008.7 |
| 20260506083420 | 76 | 140 | 2.6 | 7.8 | 0.00 | 0.00 | 0.00 | 83 | 1008.7 |
| 20260506082922 | 76 | 118 | 2.6 | 7.8 | 0.00 | 0.00 | 0.00 | 83 | 1008.7 |
| 20260506082421 | 76 | 164 | 3.5 | 7.8 | 0.00 | 0.00 | 0.00 | 83 | 1008.7 |
| 20260506081921 | 76 | 142 | 1.7 | 7.8 | 0.00 | 0.00 | 0.00 | 83 | 1008.7 |
| 20260506081420 | 76 | 154 | 3.5 | 4.3 | 0.00 | 0.00 | 0.00 | 83 | 1008.6 |
| 20260506080922 | 76 | 137 | 1.7 | 5.2 | 0.00 | 0.00 | 0.00 | 83 | 1008.7 |
| 20260506080421 | 76 | 140 | 2.6 | 5.2 | 0.00 | 0.00 | 0.00 | 83 | 1008.7 |
| 20260506073420 | 76 | 141 | 2.6 | 6.1 | 0.00 | 0.00 | 0.00 | 83 | 1009.1 |
| 20260506072925 | 76 | 137 | 2.6 | 5.2 | 0.00 | 0.00 | 0.00 | 84 | 1009.1 |
| 20260506072921 | 76 | 159 | 1.7 | 5.2 | 0.00 | 0.00 | 0.00 | 83 | 1009.0 |
| 20260506071919 | 76 | 148 | 2.6 | 4.3 | 0.00 | 0.00 | 0.00 | 84 | 1009.3 |
| 20260506071421 | 76 | 127 | 1.7 | 5.2 | 0.00 | 0.00 | 0.00 | 84 | 1009.2 |
| 20260506070920 | 76 | 147 | 3.5 | 6.1 | 0.00 | 0.00 | 0.00 | 84 | 1009.1 |
| 20260506070423 | 76 | 159 | 2.6 | 7.8 | 0.00 | 0.00 | 0.00 | 84 | 1009.3 |
| 20260506070419 | 76 | 148 | 3.5 | 6.1 | 0.00 | 0.00 | 0.00 | 84 | 1009.2 |
| 20260506061919 | 76 | 137 | 3.5 | 8.7 | 0.00 | 0.00 | 0.00 | 83 | 1009.3 |
| 20260506061418 | 76 | 147 | 1.7 | 8.7 | 0.00 | 0.00 | 0.00 | 83 | 1009.2 |
| 20260506060920 | 76 | 137 | 1.7 | 4.3 | 0.00 | 0.00 | 0.00 | 83 | 1009.2 |
| 20260506060419 | 76 | 145 | 2.6 | 5.2 | 0.00 | 0.00 | 0.00 | 83 | 1009.3 |
| 20260506051416 | 77 | 161 | 1.7 | 7.8 | 0.00 | 0.00 | 0.00 | 84 | 1009.2 |
| 20260506050923 | 77 | 140 | 2.6 | 7.8 | 0.00 | 0.00 | 0.00 | 84 | 1009.4 |
| 20260506050919 | 77 | 152 | 2.6 | 5.2 | 0.00 | 0.00 | 0.00 | 84 | 1009.3 |
| 20260506044917 | 77 | 151 | 2.6 | 5.2 | 0.00 | 0.00 | 0.00 | 84 | 1009.3 |
| 20260506044418 | 77 | 142 | 3.5 | 7.8 | 0.00 | 0.00 | 0.00 | 84 | 1009.3 |
| 20260506043917 | 77 | 137 | 2.6 | 7.8 | 0.00 | 0.00 | 0.00 | 84 | 1009.3 |
| 20260506043416 | 77 | 137 | 2.6 | 6.1 | 0.00 | 0.00 | 0.00 | 84 | 1009.3 |
| 20260506042915 | 77 | 124 | 2.6 | 6.1 | 0.00 | 0.00 | 0.00 | 84 | 1009.3 |
| 20260506042416 | 77 | 138 | 2.6 | 4.3 | 0.00 | 0.00 | 0.00 | 84 | 1009.3 |
| 20260506041917 | 77 | 137 | 2.6 | 5.2 | 0.00 | 0.00 | 0.00 | 84 | 1009.1 |
| 20260506041417 | 77 | 133 | 3.5 | 7.8 | 0.00 | 0.00 | 0.00 | 84 | 1009.1 |
| 20260506040922 | 77 | 154 | 2.6 | 7.8 | 0.00 | 0.00 | 0.00 | 84 | 1009.0 |
| 20260506040916 | 77 | 140 | 3.5 | 7.8 | 0.00 | 0.00 | 0.00 | 84 | 1009.0 |
| 20260506035915 | 77 | 131 | 3.5 | 6.1 | 0.00 | 0.00 | 0.00 | 84 | 1008.9 |
| 20260506035417 | 78 | 127 | 1.7 | 5.2 | 0.00 | 0.00 | 0.00 | 84 | 1008.9 |
| 20260506034917 | 78 | 137 | 2.6 | 5.2 | 0.00 | 0.00 | 0.00 | 84 | 1008.8 |
| 20260506034415 | 78 | 83 | 2.6 | 6.1 | 0.00 | 0.00 | 0.00 | 84 | 1008.8 |
| 20260506033916 | 78 | 151 | 3.5 | 6.1 | 0.00 | 0.00 | 0.00 | 84 | 1008.8 |
| 20260506033416 | 78 | 147 | 4.3 | 6.1 | 0.00 | 0.00 | 0.00 | 84 | 1008.8 |
| 20260506032916 | 78 | 164 | 3.5 | 6.1 | 0.00 | 0.00 | 0.00 | 84 | 1008.6 |
| 20260506032415 | 78 | 140 | 2.6 | 5.2 | 0.00 | 0.00 | 0.00 | 84 | 1008.6 |
| 20260506031916 | 78 | 155 | 2.6 | 5.2 | 0.00 | 0.00 | 0.00 | 83 | 1008.6 |
| 20260506031414 | 78 | 152 | 2.6 | 5.2 | 0.00 | 0.00 | 0.00 | 83 | 1008.5 |
| 20260506030914 | 78 | 127 | 1.7 | 6.1 | 0.00 | 0.00 | 0.00 | 83 | 1008.4 |
| 20260506030415 | 79 | 148 | 1.7 | 6.1 | 0.00 | 0.00 | 0.00 | 83 | 1008.3 |
| 20260506025914 | 79 | 159 | 3.5 | 7.8 | 0.00 | 0.00 | 0.00 | 83 | 1008.2 |
| 20260506025415 | 79 | 118 | 4.3 | 7.8 | 0.00 | 0.00 | 0.00 | 83 | 1008.2 |
| 20260506024914 | 79 | 135 | 3.5 | 6.1 | 0.00 | 0.00 | 0.00 | 82 | 1008.1 |
| 20260506024415 | 79 | 123 | 3.5 | 5.2 | 0.00 | 0.00 | 0.00 | 82 | 1008.0 |
| 20260506023914 | 79 | 142 | 2.6 | 6.1 | 0.00 | 0.00 | 0.00 | 82 | 1007.9 |
| 20260506023414 | 80 | 142 | 2.6 | 7.8 | 0.00 | 0.00 | 0.00 | 81 | 1007.8 |
| 20260506022915 | 80 | 134 | 3.5 | 7.8 | 0.00 | 0.00 | 0.00 | 80 | 1007.8 |
| 20260506022415 | 80 | 127 | 2.6 | 6.1 | 0.00 | 0.00 | 0.00 | 80 | 1007.6 |
| 20260506021913 | 80 | 141 | 2.6 | 6.1 | 0.00 | 0.00 | 0.00 | 80 | 1007.5 |
| 20260506021415 | 80 | 134 | 1.7 | 4.3 | 0.00 | 0.00 | 0.00 | 79 | 1007.3 |
| 20260506020918 | 80 | 111 | 2.6 | 3.5 | 0.00 | 0.00 | 0.00 | 79 | 1007.2 |
| 20260506020912 | 80 | 148 | 1.7 | 4.3 | 0.00 | 0.00 | 0.00 | 79 | 1007.2 |
| 20260506015913 | 81 | 117 | 1.7 | 4.3 | 0.00 | 0.00 | 0.00 | 79 | 1007.2 |
| 20260506015413 | 81 | 138 | 2.6 | 4.3 | 0.00 | 0.00 | 0.00 | 78 | 1007.1 |
| 20260506014914 | 81 | 147 | 1.7 | 3.5 | 0.00 | 0.00 | 0.00 | 78 | 1007.1 |
| 20260506014413 | 81 | 130 | 1.7 | 4.3 | 0.00 | 0.00 | 0.00 | 78 | 1007.0 |
| 20260506013912 | 81 | 120 | 1.7 | 4.3 | 0.00 | 0.00 | 0.00 | 77 | 1007.1 |
| 20260506013417 | 82 | 110 | 2.6 | 4.3 | 0.00 | 0.00 | 0.00 | 77 | 1007.0 |
| 20260506013412 | 81 | 117 | 1.7 | 4.3 | 0.00 | 0.00 | 0.00 | 77 | 1007.1 |
| 20260506012415 | 82 | 118 | 1.7 | 3.5 | 0.00 | 0.00 | 0.00 | 77 | 1007.0 |
| 20260506011912 | 82 | 134 | 1.7 | 3.5 | 0.00 | 0.00 | 0.00 | 76 | 1007.0 |
| 20260506011413 | 82 | 121 | 1.7 | 3.5 | 0.00 | 0.00 | 0.00 | 76 | 1007.0 |
| 20260506010916 | 82 | 130 | 0.9 | 1.7 | 0.00 | 0.00 | 0.00 | 76 | 1007.1 |
| 20260506010911 | 82 | 135 | 1.7 | 3.5 | 0.00 | 0.00 | 0.00 | 76 | 1007.1 |
| 20260506005912 | 82 | 138 | 0.9 | 2.6 | 0.00 | 0.00 | 0.00 | 75 | 1007.1 |
| 20260506005418 | 83 | 147 | 1.7 | 3.5 | 0.00 | 0.00 | 0.00 | 75 | 1007.1 |
| 20260506005412 | 83 | 138 | 0.9 | 3.5 | 0.00 | 0.00 | 0.00 | 75 | 1007.0 |
| 20260506004411 | 83 | 125 | 1.7 | 3.5 | 0.00 | 0.00 | 0.00 | 75 | 1007.0 |
| 20260506003912 | 83 | 125 | 0.9 | 3.5 | 0.00 | 0.00 | 0.00 | 75 | 1007.0 |
| 20260506003411 | 83 | 134 | 1.7 | 3.5 | 0.00 | 0.00 | 0.00 | 74 | 1007.0 |
| 20260506002912 | 83 | 140 | 0.9 | 3.5 | 0.00 | 0.00 | 0.00 | 74 | 1006.9 |
| 20260506002413 | 83 | 140 | 0.9 | 3.5 | 0.00 | 0.00 | 0.00 | 74 | 1006.9 |
| 20260506001912 | 83 | 147 | 1.7 | 2.6 | 0.00 | 0.00 | 0.00 | 74 | 1006.9 |
| 20260506001411 | 83 | 133 | 0.9 | 2.6 | 0.00 | 0.00 | 0.00 | 73 | 1006.9 |
| 20260506000912 | 83 | 140 | 1.7 | 4.3 | 0.00 | 0.00 | 0.00 | 73 | 1006.8 |
| 20260506000410 | 83 | 151 | 1.7 | 4.3 | 0.00 | 0.00 | 0.00 | 73 | 1006.7 |
| 20260505235917 | 83 | 130 | 1.7 | 4.3 | 0.00 | 0.00 | 0.00 | 73 | 1006.7 |
| 20260505235913 | 83 | 152 | 1.7 | 4.3 | 0.00 | 0.00 | 0.00 | 73 | 1006.7 |
| 20260505234910 | 83 | 116 | 2.6 | 4.3 | 0.00 | 0.00 | 0.00 | 72 | 1006.7 |
| 20260505234411 | 84 | 147 | 1.7 | 5.2 | 0.00 | 0.00 | 0.00 | 72 | 1006.7 |
| 20260505233910 | 84 | 127 | 2.6 | 5.2 | 0.00 | 0.00 | 0.00 | 71 | 1006.6 |
| 20260505233411 | 84 | 141 | 2.6 | 6.1 | 0.00 | 0.00 | 0.00 | 72 | 1006.5 |
| 20260505232909 | 84 | 141 | 1.7 | 6.1 | 0.00 | 0.00 | 0.00 | 71 | 1006.5 |
| 20260505232411 | 84 | 117 | 3.5 | 5.2 | 0.00 | 0.00 | 0.00 | 71 | 1006.6 |
| 20260505231909 | 84 | 128 | 1.7 | 4.3 | 0.00 | 0.00 | 0.00 | 71 | 1006.7 |
| 20260505231410 | 84 | 140 | 1.7 | 3.5 | 0.00 | 0.00 | 0.00 | 72 | 1006.7 |
| 20260505230909 | 84 | 147 | 0.9 | 4.3 | 0.00 | 0.00 | 0.00 | 72 | 1006.6 |
| 20260505230409 | 84 | 135 | 1.7 | 4.3 | 0.00 | 0.00 | 0.00 | 71 | 1006.5 |
| 20260505225910 | 84 | 154 | 2.6 | 5.2 | 0.00 | 0.00 | 0.00 | 71 | 1006.5 |
| 20260505225409 | 84 | 145 | 2.6 | 5.2 | 0.00 | 0.00 | 0.00 | 71 | 1006.3 |
| 20260505224913 | 84 | 147 | 2.6 | 5.2 | 0.00 | 0.00 | 0.00 | 70 | 1006.3 |
| 20260505224909 | 84 | 154 | 0.9 | 5.2 | 0.00 | 0.00 | 0.00 | 70 | 1006.5 |
| 20260505223915 | 84 | 142 | 3.5 | 6.1 | 0.00 | 0.00 | 0.00 | 70 | 1006.2 |
| 20260505223910 | 84 | 141 | 2.6 | 6.1 | 0.00 | 0.00 | 0.00 | 70 | 1006.2 |
| 20260505222910 | 85 | 130 | 2.6 | 6.1 | 0.00 | 0.00 | 0.00 | 70 | 1006.3 |
| 20260505222409 | 85 | 141 | 0.9 | 5.2 | 0.00 | 0.00 | 0.00 | 70 | 1006.2 |
| 20260505221908 | 85 | 165 | 2.6 | 6.1 | 0.00 | 0.00 | 0.00 | 69 | 1006.3 |
| 20260505221408 | 85 | 148 | 3.5 | 6.1 | 0.00 | 0.00 | 0.00 | 70 | 1006.3 |
| 20260505220908 | 85 | 158 | 2.6 | 6.1 | 0.00 | 0.00 | 0.00 | 69 | 1006.3 |
| 20260505220407 | 85 | 130 | 3.5 | 6.1 | 0.00 | 0.00 | 0.00 | 69 | 1006.3 |
| 20260505215909 | 85 | 142 | 2.6 | 5.2 | 0.00 | 0.00 | 0.00 | 69 | 1006.3 |
| 20260505215413 | 85 | 138 | 2.6 | 5.2 | 0.00 | 0.00 | 0.00 | 67 | 1006.9 |
| 20260505215409 | 85 | 124 | 0.9 | 5.2 | 0.00 | 0.00 | 0.00 | 68 | 1006.6 |
| 20260505214409 | 85 | 149 | 0.9 | 9.6 | 0.00 | 0.00 | 0.00 | 67 | 1006.9 |
| 20260505213913 | 86 | 164 | 2.6 | 7.8 | 0.00 | 0.00 | 0.00 | 67 | 1006.9 |
| 20260505213907 | 85 | 117 | 3.5 | 9.6 | 0.00 | 0.00 | 0.00 | 66 | 1006.8 |
| 20260505212907 | 86 | 157 | 2.6 | 8.7 | 0.00 | 0.00 | 0.00 | 67 | 1007.1 |
| 20260505212409 | 85 | 142 | 3.5 | 8.7 | 0.00 | 0.00 | 0.00 | 68 | 1007.0 |
| 20260505211915 | 85 | 147 | 2.6 | 5.2 | 0.00 | 0.00 | 0.00 | 68 | 1007.1 |
| 20260505211908 | 85 | 140 | 1.7 | 8.7 | 0.00 | 0.00 | 0.00 | 69 | 1007.0 |
| 20260505211409 | 85 | 149 | 4.3 | 8.7 | 0.00 | 0.00 | 0.00 | 68 | 1007.1 |
| 20260505210407 | 85 | 147 | 2.6 | 5.2 | 0.00 | 0.00 | 0.00 | 69 | 1007.1 |
| 20260505205907 | 84 | 169 | 2.6 | 6.1 | 0.00 | 0.00 | 0.00 | 71 | 1007.2 |
| 20260505205407 | 84 | 159 | 2.6 | 6.1 | 0.00 | 0.00 | 0.00 | 70 | 1007.2 |
| 20260505204906 | 83 | 154 | 4.3 | 7.8 | 0.00 | 0.00 | 0.00 | 71 | 1007.3 |
| 20260505204414 | 83 | 168 | 4.3 | 8.7 | 0.00 | 0.00 | 0.00 | 72 | 1007.5 |
| 20260505204408 | 83 | 123 | 3.5 | 7.8 | 0.00 | 0.00 | 0.00 | 71 | 1007.4 |
| 20260505203407 | 83 | 147 | 4.3 | 8.7 | 0.00 | 0.00 | 0.00 | 72 | 1007.7 |
| 20260505202912 | 83 | 158 | 0.9 | 6.1 | 0.00 | 0.00 | 0.00 | 73 | 1007.9 |
| 20260505202907 | 83 | 157 | 2.6 | 7.8 | 0.00 | 0.00 | 0.00 | 72 | 1007.8 |
| 20260505201912 | 83 | 144 | 2.6 | 5.2 | 0.00 | 0.00 | 0.00 | 73 | 1008.1 |
| 20260505201906 | 83 | 149 | 3.5 | 6.1 | 0.00 | 0.00 | 0.00 | 72 | 1008.0 |
| 20260505200905 | 83 | 152 | 1.7 | 6.1 | 0.00 | 0.00 | 0.00 | 73 | 1008.1 |
| 20260505200405 | 82 | 154 | 0.9 | 6.1 | 0.00 | 0.00 | 0.00 | 74 | 1008.2 |
| 20260505195906 | 82 | 217 | 3.5 | 5.2 | 0.00 | 0.00 | 0.00 | 73 | 1008.2 |
| 20260505195410 | 82 | 140 | 3.5 | 6.1 | 0.00 | 0.00 | 0.00 | 74 | 1008.3 |
| 20260505195405 | 82 | 152 | 3.5 | 6.1 | 0.00 | 0.00 | 0.00 | 74 | 1008.3 |
| 20260505194406 | 82 | 118 | 3.5 | 6.1 | 0.00 | 0.00 | 0.00 | 74 | 1008.3 |
| 20260505193905 | 81 | 151 | 0.0 | 6.1 | 0.00 | 0.00 | 0.00 | 75 | 1008.4 |
| 20260505193409 | 81 | 131 | 2.6 | 6.1 | 0.00 | 0.00 | 0.00 | 75 | 1008.5 |
| 20260505193405 | 81 | 138 | 3.5 | 6.1 | 0.00 | 0.00 | 0.00 | 74 | 1008.5 |
| 20260505192405 | 81 | 134 | 3.5 | 7.8 | 0.00 | 0.00 | 0.00 | 74 | 1008.6 |
| 20260505191904 | 81 | 121 | 2.6 | 7.8 | 0.00 | 0.00 | 0.00 | 75 | 1008.5 |
| 20260505191404 | 81 | 166 | 2.6 | 7.8 | 0.00 | 0.00 | 0.00 | 75 | 1008.6 |
| 20260505190909 | 82 | 149 | 0.9 | 5.2 | 0.00 | 0.00 | 0.00 | 75 | 1008.6 |
| 20260505190905 | 81 | 158 | 1.7 | 6.1 | 0.00 | 0.00 | 0.00 | 74 | 1008.5 |
| 20260505185905 | 82 | 131 | 1.7 | 5.2 | 0.00 | 0.00 | 0.00 | 75 | 1008.6 |
| 20260505185405 | 81 | 144 | 1.7 | 5.2 | 0.00 | 0.00 | 0.00 | 76 | 1008.8 |
| 20260505184904 | 81 | 144 | 0.9 | 6.1 | 0.00 | 0.00 | 0.00 | 77 | 1008.9 |
| 20260505184404 | 80 | 140 | 2.6 | 6.1 | 0.00 | 0.00 | 0.00 | 78 | 1008.8 |
| 20260505183904 | 80 | 149 | 0.9 | 5.2 | 0.00 | 0.00 | 0.00 | 79 | 1009.0 |
| 20260505183403 | 79 | 137 | 0.9 | 5.2 | 0.00 | 0.00 | 0.00 | 79 | 1009.1 |
| 20260505182910 | 78 | 149 | 0.9 | 3.5 | 0.00 | 0.00 | 0.00 | 80 | 1009.2 |
| 20260505182903 | 79 | 145 | 0.9 | 3.5 | 0.00 | 0.00 | 0.00 | 80 | 1009.1 |
| 20260505182403 | 78 | 148 | 0.9 | 3.5 | 0.00 | 0.00 | 0.00 | 80 | 1009.3 |
| 20260505181403 | 78 | 147 | 1.7 | 3.5 | 0.00 | 0.00 | 0.00 | 81 | 1009.2 |
| 20260505180905 | 78 | 141 | 1.7 | 3.5 | 0.00 | 0.00 | 0.00 | 81 | 1009.2 |
| 20260505180403 | 78 | 131 | 0.9 | 3.5 | 0.00 | 0.00 | 0.00 | 82 | 1009.3 |
| 20260505175908 | 77 | 141 | 1.7 | 4.3 | 0.00 | 0.00 | 0.00 | 81 | 1009.5 |
| 20260505175904 | 77 | 144 | 0.0 | 4.3 | 0.00 | 0.00 | 0.00 | 82 | 1009.4 |
| 20260505174902 | 77 | 154 | 1.7 | 3.5 | 0.00 | 0.00 | 0.00 | 82 | 1009.5 |
| 20260505174403 | 77 | 161 | 0.0 | 4.3 | 0.00 | 0.00 | 0.00 | 82 | 1009.7 |
| 20260505173904 | 77 | 141 | 1.7 | 4.3 | 0.00 | 0.00 | 0.00 | 82 | 1009.6 |
| 20260505173403 | 77 | 135 | 0.0 | 3.5 | 0.00 | 0.00 | 0.00 | 82 | 1009.7 |
| 20260505172903 | 76 | 135 | 0.0 | 2.6 | 0.00 | 0.00 | 0.00 | 83 | 1009.7 |
| 20260505172403 | 76 | 155 | 0.9 | 1.7 | 0.00 | 0.00 | 0.00 | 83 | 1009.7 |
| 20260505171902 | 76 | 133 | 0.9 | 5.2 | 0.00 | 0.00 | 0.00 | 83 | 1009.6 |
| 20260505171402 | 76 | 168 | 1.7 | 5.2 | 0.00 | 0.00 | 0.00 | 83 | 1009.8 |
| 20260505170902 | 75 | 133 | 1.7 | 5.2 | 0.00 | 0.00 | 0.00 | 83 | 1009.8 |
| 20260505170402 | 75 | 147 | 2.6 | 5.2 | 0.00 | 0.00 | 0.00 | 83 | 1009.7 |
| 20260505165902 | 75 | 155 | 1.7 | 5.2 | 0.00 | 0.00 | 0.00 | 84 | 1009.8 |
| 20260505165407 | 75 | 155 | 0.0 | 4.3 | 0.00 | 0.00 | 0.00 | 84 | 1009.9 |
| 20260505165403 | 75 | 135 | 1.7 | 3.5 | 0.00 | 0.00 | 0.00 | 84 | 1009.8 |
| 20260505164407 | 74 | 147 | 1.7 | 4.3 | 0.00 | 0.00 | 0.00 | 84 | 1009.8 |
| 20260505164401 | 74 | 152 | 0.0 | 4.3 | 0.00 | 0.00 | 0.00 | 84 | 1009.8 |
| 20260505164018 | 74 | 149 | 2.6 | 4.3 | 0.00 | 0.00 | 0.00 | 84 | 1009.7 |
| 20260505162907 | 74 | 147 | 1.7 | 4.3 | 0.00 | 0.00 | 0.00 | 85 | 1009.8 |
| 20260505162902 | 74 | 144 | 1.7 | 4.3 | 0.00 | 0.00 | 0.00 | 85 | 1009.8 |
| 20260505161902 | 73 | 162 | 1.7 | 4.3 | 0.00 | 0.00 | 0.00 | 85 | 1009.8 |
| 20260505161403 | 73 | 151 | 1.7 | 5.2 | 0.00 | 0.00 | 0.00 | 84 | 1009.8 |
| 20260505160901 | 73 | 144 | 0.9 | 5.2 | 0.00 | 0.00 | 0.00 | 84 | 1009.9 |
| 20260505160407 | 73 | 147 | 0.9 | 3.5 | 0.00 | 0.00 | 0.00 | 84 | 1009.8 |
| 20260505160402 | 73 | 151 | 0.9 | 5.2 | 0.00 | 0.00 | 0.00 | 84 | 1009.8 |
| 20260505152900 | 72 | 123 | 1.7 | 5.2 | 0.00 | 0.00 | 0.00 | 83 | 1010.0 |
| 20260505152401 | 72 | 134 | 0.9 | 5.2 | 0.00 | 0.00 | 0.00 | 83 | 1009.9 |
| 20260505151902 | 72 | 148 | 1.7 | 3.5 | 0.00 | 0.00 | 0.00 | 83 | 1009.9 |
| 20260505151401 | 72 | 148 | 1.7 | 4.3 | 0.00 | 0.00 | 0.00 | 83 | 1009.9 |
| 20260505150859 | 72 | 124 | 0.9 | 4.3 | 0.00 | 0.00 | 0.00 | 83 | 1009.7 |
| 20260505150359 | 72 | 203 | 0.9 | 4.3 | 0.00 | 0.00 | 0.00 | 83 | 1009.6 |
| 20260505140358 | 72 | 125 | 1.7 | 5.2 | 0.00 | 0.00 | 0.00 | 83 | 1009.5 |
| 20260505124857 | 71 | 131 | 0.9 | 6.1 | 0.00 | 0.00 | 0.00 | 81 | 1008.6 |
| 20260505123857 | 71 | 128 | 3.5 | 6.1 | 0.00 | 0.00 | 0.00 | 81 | 1008.6 |
| 20260505123356 | 71 | 147 | 3.5 | 6.1 | 0.00 | 0.00 | 0.00 | 81 | 1008.5 |
| 20260505122856 | 71 | 130 | 1.7 | 5.2 | 0.00 | 0.00 | 0.00 | 81 | 1008.6 |
| 20260505122356 | 71 | 142 | 2.6 | 5.2 | 0.00 | 0.00 | 0.00 | 81 | 1008.5 |
| 20260505121858 | 71 | 157 | 1.7 | 6.1 | 0.00 | 0.00 | 0.00 | 82 | 1008.4 |
| 20260505121356 | 71 | 272 | 0.9 | 6.1 | 0.00 | 0.00 | 0.00 | 82 | 1008.3 |
| 20260505120856 | 71 | 161 | 1.7 | 5.2 | 0.00 | 0.00 | 0.00 | 82 | 1008.3 |
| 20260505120356 | 71 | 137 | 2.6 | 5.2 | 0.00 | 0.00 | 0.00 | 82 | 1008.3 |
| 20260505115901 | 71 | 161 | 1.7 | 5.2 | 0.00 | 0.00 | 0.00 | 83 | 1008.1 |
| 20260505115857 | 71 | 157 | 2.6 | 5.2 | 0.00 | 0.00 | 0.00 | 83 | 1008.2 |
| 20260505114855 | 71 | 140 | 1.7 | 6.1 | 0.00 | 0.00 | 0.00 | 83 | 1008.2 |
| 20260505114356 | 71 | 159 | 3.5 | 6.1 | 0.00 | 0.00 | 0.00 | 83 | 1008.2 |
| 20260505113856 | 71 | 152 | 1.7 | 6.1 | 0.00 | 0.00 | 0.00 | 83 | 1008.2 |
| 20260505113355 | 71 | 171 | 3.5 | 6.1 | 0.00 | 0.00 | 0.00 | 83 | 1008.0 |
| 20260505112858 | 71 | 164 | 3.5 | 6.1 | 0.00 | 0.00 | 0.00 | 83 | 1008.0 |
| 20260505112854 | 71 | 135 | 1.7 | 5.2 | 0.00 | 0.00 | 0.00 | 83 | 1008.2 |
| 20260505112516 | 71 | 203 | 1.7 | 6.1 | 0.00 | 0.00 | 0.00 | 83 | 1008.1 |
| 20260505111356 | 71 | 145 | 1.7 | 6.1 | 0.00 | 0.00 | 0.00 | 83 | 1008.0 |
| 20260505110859 | 71 | 135 | 1.7 | 9.6 | 0.00 | 0.00 | 0.00 | 83 | 1008.4 |
| 20260505110854 | 71 | 159 | 2.6 | 6.1 | 0.00 | 0.00 | 0.00 | 83 | 1008.3 |
| 20260505101854 | 71 | 157 | 2.6 | 7.8 | 0.00 | 0.00 | 0.00 | 84 | 1008.3 |
| 20260505101354 | 71 | 152 | 3.5 | 6.1 | 0.00 | 0.00 | 0.00 | 84 | 1008.4 |
| 20260505100853 | 71 | 140 | 2.6 | 5.2 | 0.00 | 0.00 | 0.00 | 84 | 1008.6 |
| 20260505100353 | 71 | 155 | 1.7 | 5.2 | 0.00 | 0.00 | 0.00 | 84 | 1008.3 |
| 20260505095853 | 71 | 159 | 1.7 | 6.1 | 0.00 | 0.00 | 0.00 | 84 | 1008.5 |
| 20260505095354 | 71 | 159 | 2.6 | 6.1 | 0.00 | 0.00 | 0.00 | 84 | 1008.3 |
| 20260505094854 | 71 | 144 | 1.7 | 4.3 | 0.00 | 0.00 | 0.00 | 84 | 1008.2 |
| 20260505094354 | 71 | 140 | 0.9 | 6.1 | 0.00 | 0.00 | 0.00 | 84 | 1008.3 |
| 20260505093854 | 71 | 182 | 1.7 | 7.8 | 0.00 | 0.00 | 0.00 | 84 | 1008.5 |
| 20260505093352 | 71 | 165 | 2.6 | 7.8 | 0.00 | 0.00 | 0.00 | 84 | 1008.5 |
| 20260505092853 | 71 | 133 | 2.6 | 7.8 | 0.00 | 0.00 | 0.00 | 84 | 1008.5 |